• In Belarus
  • List of Countries
  • For 7 days
  • Water Temperature
  • Satellite Maps
  • Weather Map
  • Weather Widgets
  • user-avatar
    Login

    Hourly Weather Charkhi Dadri

    Today, 20 March, Wednesday

    Time Temperature Precipitation Wind Pressure Humidity
    00:00 +22°C° 0 mm 3 mps 736 mmHg 36%
    01:00 +22°C° 0 mm 3 mps 736 mmHg 36%
    02:00 +22°C° 0 mm 4 mps 736 mmHg 36%
    03:00 +21°C° 0 mm 3 mps 736 mmHg 37%
    04:00 +20°C° 0 mm 3 mps 736 mmHg 38%
    05:00 +19°C° 0 mm 3 mps 735 mmHg 44%
    06:00 +21°C° 0 mm 4 mps 736 mmHg 41%
    07:00 +22°C° 0 mm 5 mps 737 mmHg 37%
    08:00 +25°C° 0 mm 5 mps 737 mmHg 34%
    09:00 +28°C° 0 mm 5 mps 737 mmHg 30%
    10:00 +30°C° 0 mm 4 mps 738 mmHg 25%
    11:00 +33°C° 0 mm 3 mps 738 mmHg 21%
    12:00 +34°C° 0 mm 3 mps 738 mmHg 19%
    13:00 +35°C° 0 mm 3 mps 737 mmHg 16%
    14:00 +36°C° 0 mm 3 mps 737 mmHg 13%
    15:00 +35°C° 0 mm 3 mps 737 mmHg 14%
    16:00 +34°C° 0 mm 3 mps 737 mmHg 16%
    17:00 +33°C° 0 mm 3 mps 736 mmHg 17%
    18:00 +30°C° 0 mm 3 mps 736 mmHg 18%
    19:00 +28°C° 0 mm 3 mps 737 mmHg 18%
    20:00 +26°C° 0 mm 3 mps 737 mmHg 19%
    21:00 +25°C° 0 mm 3 mps 737 mmHg 24%
    22:00 +24°C° 0 mm 3 mps 738 mmHg 28%
    23:00 +22°C° 0 mm 3 mps 738 mmHg 33%

    Tomorrow, 21 March, Thursday

    Time Temperature Precipitation Wind Pressure Humidity
    00:00 +21°C° 0 mm 3 mps 738 mmHg 42%
    01:00 +20°C° 0 mm 3 mps 738 mmHg 50%
    02:00 +19°C° 0 mm 3 mps 738 mmHg 59%
    03:00 +18°C° 0 mm 2 mps 738 mmHg 57%
    04:00 +19°C° 0 mm 1 mps 738 mmHg 56%
    05:00 +19°C° 0 mm 1 mps 738 mmHg 55%
    06:00 +20°C° 0 mm 1 mps 739 mmHg 51%
    07:00 +22°C° 0 mm 1 mps 740 mmHg 46%
    08:00 +24°C° 0 mm 1 mps 740 mmHg 42%
    09:00 +26°C° 0 mm 1 mps 741 mmHg 37%
    10:00 +29°C° 0 mm 1 mps 741 mmHg 32%
    11:00 +31°C° 0 mm 1 mps 741 mmHg 27%
    12:00 +32°C° 0 mm 1 mps 740 mmHg 24%
    13:00 +33°C° 0 mm 1 mps 740 mmHg 20%
    14:00 +34°C° 0 mm 1 mps 739 mmHg 17%
    15:00 +33°C° 0 mm 1 mps 739 mmHg 18%
    16:00 +32°C° 0 mm 2 mps 738 mmHg 19%
    17:00 +33°C° 0 mm 3 mps 738 mmHg 20%
    18:00 +30°C° 0 mm 3 mps 738 mmHg 21%
    19:00 +28°C° 0 mm 3 mps 739 mmHg 22%
    20:00 +26°C° 0 mm 3 mps 739 mmHg 24%
    21:00 +25°C° 0 mm 3 mps 740 mmHg 26%
    22:00 +24°C° 0 mm 3 mps 740 mmHg 27%
    23:00 +22°C° 0 mm 3 mps 740 mmHg 29%

    Day after tomorrow, 22 March, Friday

    Time Temperature Precipitation Wind Pressure Humidity
    00:00 +21°C° 0 mm 3 mps 740 mmHg 35%
    01:00 +21°C° 0 mm 3 mps 740 mmHg 41%
    02:00 +20°C° 0 mm 3 mps 740 mmHg 48%
    03:00 +19°C° 0 mm 2 mps 740 mmHg 51%
    04:00 +19°C° 0 mm 2 mps 740 mmHg 55%
    05:00 +18°C° 0 mm 2 mps 740 mmHg 58%
    06:00 +20°C° 0 mm 3 mps 740 mmHg 53%
    07:00 +21°C° 0 mm 3 mps 741 mmHg 48%
    08:00 +22°C° 0 mm 3 mps 742 mmHg 42%
    09:00 +26°C° 0 mm 3 mps 742 mmHg 34%
    10:00 +28°C° 0 mm 4 mps 743 mmHg 26%
    11:00 +32°C° 0 mm 4 mps 743 mmHg 18%
    12:00 +33°C° 0 mm 5 mps 742 mmHg 17%
    13:00 +34°C° 0 mm 5 mps 741 mmHg 15%
    14:00 +34°C° 0 mm 5 mps 741 mmHg 13%
    15:00 +34°C° 0 mm 5 mps 740 mmHg 14%
    16:00 +33°C° 0 mm 4 mps 740 mmHg 15%
    17:00 +33°C° 0 mm 4 mps 739 mmHg 16%
    18:00 +29°C° 0 mm 3 mps 740 mmHg 19%
    19:00 +27°C° 0 mm 3 mps 740 mmHg 21%
    20:00 +24°C° 0 mm 2 mps 740 mmHg 24%
    21:00 +23°C° 0 mm 2 mps 741 mmHg 28%
    22:00 +21°C° 0 mm 2 mps 741 mmHg 31%
    23:00 +21°C° 0 mm 1 mps 741 mmHg 35%

    23 March, Saturday

    Time Temperature Precipitation Wind Pressure Humidity
    00:00 +20°C° 0 mm 2 mps 741 mmHg 37%
    01:00 +19°C° 0 mm 2 mps 740 mmHg 39%
    02:00 +19°C° 0 mm 2 mps 740 mmHg 40%
    03:00 +18°C° 0 mm 2 mps 740 mmHg 40%
    04:00 +18°C° 0 mm 2 mps 740 mmHg 41%
    05:00 +18°C° 0 mm 2 mps 740 mmHg 41%
    06:00 +19°C° 0 mm 2 mps 741 mmHg 38%
    07:00 +21°C° 0 mm 2 mps 742 mmHg 36%
    08:00 +23°C° 0 mm 2 mps 742 mmHg 34%
    09:00 +26°C° 0 mm 3 mps 742 mmHg 28%
    10:00 +29°C° 0 mm 4 mps 742 mmHg 23%
    11:00 +33°C° 0 mm 5 mps 743 mmHg 17%
    12:00 +34°C° 0 mm 5 mps 742 mmHg 16%
    13:00 +35°C° 0 mm 6 mps 741 mmHg 15%
    14:00 +35°C° 0 mm 6 mps 740 mmHg 14%
    15:00 +35°C° 0 mm 6 mps 740 mmHg 15%
    16:00 +34°C° 0 mm 6 mps 740 mmHg 17%
    17:00 +33°C° 0 mm 5 mps 739 mmHg 18%
    18:00 +30°C° 0 mm 4 mps 740 mmHg 21%
    19:00 +28°C° 0 mm 4 mps 740 mmHg 23%
    20:00 +25°C° 0 mm 3 mps 740 mmHg 26%
    21:00 +24°C° 0 mm 3 mps 740 mmHg 29%
    22:00 +22°C° 0 mm 3 mps 740 mmHg 32%
    23:00 +21°C° 0 mm 2 mps 740 mmHg 35%

    24 March, Sunday

    Time Temperature Precipitation Wind Pressure Humidity
    00:00 +21°C° 0 mm 2 mps 740 mmHg 39%
    01:00 +20°C° 0 mm 2 mps 740 mmHg 42%
    02:00 +19°C° 0 mm 2 mps 739 mmHg 46%
    03:00 +19°C° 0 mm 2 mps 739 mmHg 47%
    04:00 +18°C° 0 mm 2 mps 739 mmHg 49%
    05:00 +18°C° 0 mm 2 mps 739 mmHg 50%
    06:00 +19°C° 0 mm 2 mps 739 mmHg 48%
    07:00 +21°C° 0 mm 3 mps 740 mmHg 45%
    08:00 +22°C° 0 mm 3 mps 741 mmHg 43%
    09:00 +26°C° 0 mm 4 mps 741 mmHg 36%
    10:00 +29°C° 0 mm 4 mps 741 mmHg 29%
    11:00 +33°C° 0 mm 5 mps 741 mmHg 23%
    12:00 +34°C° 0 mm 6 mps 740 mmHg 21%
    13:00 +35°C° 0 mm 6 mps 739 mmHg 20%
    14:00 +36°C° 0 mm 7 mps 739 mmHg 18%
    15:00 +35°C° 0 mm 6 mps 738 mmHg 18%
    16:00 +35°C° 0 mm 5 mps 738 mmHg 19%
    17:00 +34°C° 0 mm 5 mps 738 mmHg 19%
    18:00 +32°C° 0 mm 4 mps 738 mmHg 21%
    19:00 +29°C° 0 mm 4 mps 738 mmHg 22%
    20:00 +27°C° 0 mm 3 mps 739 mmHg 24%
    21:00 +26°C° 0 mm 3 mps 739 mmHg 25%
    22:00 +26°C° 0 mm 3 mps 739 mmHg 26%
    23:00 +25°C° 0 mm 2 mps 739 mmHg 27%

    25 March, Monday

    Time Temperature Precipitation Wind Pressure Humidity
    00:00 +24°C° 0 mm 3 mps 739 mmHg 29%
    01:00 +24°C° 0 mm 3 mps 738 mmHg 30%
    02:00 +22°C° 0 mm 3 mps 738 mmHg 31%
    03:00 +23°C° 0 mm 2 mps 738 mmHg 31%
    04:00 +23°C° 0 mm 1 mps 738 mmHg 30%
    05:00 +22°C° 0 mm 1 mps 739 mmHg 30%
    06:00 +23°C° 0 mm 1 mps 739 mmHg 28%
    07:00 +25°C° 0 mm 1 mps 740 mmHg 27%
    08:00 +26°C° 0 mm 1 mps 741 mmHg 25%
    09:00 +28°C° 0 mm 1 mps 741 mmHg 22%
    10:00 +31°C° 0 mm 2 mps 741 mmHg 19%
    11:00 +34°C° 0 mm 2 mps 741 mmHg 16%
    12:00 +35°C° 0 mm 3 mps 740 mmHg 16%
    13:00 +36°C° 0 mm 3 mps 740 mmHg 15%
    14:00 +37°C° 0 mm 3 mps 739 mmHg 15%
    15:00 +37°C° 0 mm 4 mps 739 mmHg 16%
    16:00 +36°C° 0 mm 4 mps 739 mmHg 17%
    17:00 +36°C° 0 mm 4 mps 738 mmHg 18%
    18:00 +33°C° 0 mm 4 mps 739 mmHg 21%
    19:00 +30°C° 0 mm 3 mps 739 mmHg 23%
    20:00 +28°C° 0 mm 3 mps 740 mmHg 26%
    21:00 +26°C° 0 mm 3 mps 740 mmHg 31%
    22:00 +25°C° 0 mm 3 mps 740 mmHg 36%
    23:00 +22°C° 0 mm 3 mps 740 mmHg 41%
    Show more